ULK2401 LEPA-EDNY

Flight info

Callsign ULK2401
Flight time 1h 33m
Altitude 36000
Route MEROS DCT LAPIT DCT CHELY DCT LUMAS DCT UNANA DCT STP DCT RAPED DCT PIGOS DCT EKSID DCT NOSTA DCT NOPMU DCT ASBOP DCT ASTIG DCT ABESI N851 UTAVO DCT SOPER N851 ROLSA ROLSA1F
Aircraft A319/M-SDE2E3FGIJ1LORWXYZ/HB1

Departure

Time 2026-04-26 11:51
Airport Palma de Mallorca Airport (LEPA)

Arrival

Time 2026-04-26 13:24
Airport Bodensee Airport Friedrichshafen (EDNY)
Time Latitude Longitude Altitude Speed Heading
2026-04-26 11:36 39.54799 2.73609 36 ft 0 kts 57°
2026-04-26 11:42 39.54775 2.73573 35 ft 4 kts 32°
2026-04-26 11:43 39.54751 2.73560 36 ft 4 kts
2026-04-26 11:43 39.54726 2.73565 34 ft 3 kts 330°
2026-04-26 11:43 39.54722 2.73567 32 ft 0 kts 328°
2026-04-26 11:45 39.54723 2.73567 32 ft 1 kts 328°
2026-04-26 11:45 39.54763 2.73531 35 ft 12 kts 311°
2026-04-26 11:45 39.54721 2.73477 36 ft 14 kts 159°
2026-04-26 11:46 39.54630 2.73563 36 ft 16 kts 109°
2026-04-26 11:46 39.54670 2.73694 36 ft 16 kts 60°
2026-04-26 11:46 39.54725 2.73815 36 ft 15 kts 59°
2026-04-26 11:46 39.54784 2.73935 36 ft 17 kts 59°
2026-04-26 11:47 39.54879 2.73975 36 ft 16 kts 336°
2026-04-26 11:47 39.54972 2.74003 36 ft 14 kts 360°
2026-04-26 11:47 39.55065 2.73938 36 ft 18 kts 328°
2026-04-26 11:47 39.55190 2.73839 36 ft 22 kts 328°
2026-04-26 11:48 39.55323 2.73734 36 ft 22 kts 328°
2026-04-26 11:48 39.55459 2.73626 33 ft 24 kts 328°
2026-04-26 11:48 39.55599 2.73515 28 ft 22 kts 329°
2026-04-26 11:48 39.55691 2.73576 26 ft 18 kts 60°
2026-04-26 11:49 39.55758 2.73716 26 ft 20 kts 58°
2026-04-26 11:49 39.55837 2.73885 24 ft 23 kts 58°
2026-04-26 11:49 39.55923 2.74067 21 ft 24 kts 58°
2026-04-26 11:49 39.56010 2.74244 18 ft 21 kts 50°
2026-04-26 11:50 39.56131 2.74344 17 ft 21 kts 24°
2026-04-26 11:50 39.56230 2.74281 17 ft 19 kts 269°
2026-04-26 11:50 39.56143 2.74076 19 ft 51 kts 238°
2026-04-26 11:50 39.55833 2.73426 25 ft 116 kts 238°
2026-04-26 11:51 39.55317 2.72342 89 ft 158 kts 238°
2026-04-26 11:51 39.54797 2.71210 875 ft 142 kts 238°
2026-04-26 11:51 39.54288 2.70127 1419 ft 140 kts 236°
2026-04-26 11:51 39.53767 2.69025 1744 ft 150 kts 234°
2026-04-26 11:52 39.53176 2.67789 1900 ft 173 kts 236°
2026-04-26 11:52 39.52488 2.66352 1996 ft 205 kts 237°
2026-04-26 11:52 39.51694 2.64686 2334 ft 227 kts 237°
2026-04-26 11:52 39.50849 2.62902 3041 ft 236 kts 237°
2026-04-26 11:53 39.49961 2.61129 3802 ft 239 kts 228°
2026-04-26 11:53 39.48694 2.59743 4580 ft 240 kts 204°
2026-04-26 11:53 39.47104 2.59187 5367 ft 238 kts 177°
2026-04-26 11:54 39.44243 2.60947 6896 ft 236 kts 125°
2026-04-26 11:54 39.43535 2.62927 7320 ft 255 kts 98°
2026-04-26 11:54 39.43718 2.65265 7825 ft 271 kts 71°
2026-04-26 11:54 39.44379 2.67577 8591 ft 276 kts 70°
2026-04-26 11:55 39.45053 2.69929 9423 ft 280 kts 70°
2026-04-26 11:55 39.45732 2.72321 10211 ft 285 kts 70°
2026-04-26 11:55 39.46420 2.74765 10627 ft 303 kts 71°
2026-04-26 11:55 39.47166 2.77435 10862 ft 327 kts 71°
2026-04-26 11:56 39.47956 2.80278 11240 ft 342 kts 71°
2026-04-26 11:56 39.48765 2.83198 11906 ft 347 kts 71°
2026-04-26 11:56 39.49585 2.86157 12618 ft 350 kts 71°
2026-04-26 11:56 39.50416 2.89146 13331 ft 354 kts 71°
2026-04-26 11:57 39.51255 2.92159 14045 ft 357 kts 71°
2026-04-26 11:57 39.52099 2.95199 14673 ft 360 kts 71°
2026-04-26 11:57 39.52952 2.98267 15293 ft 364 kts 71°
2026-04-26 11:57 39.53811 3.01363 15945 ft 365 kts 71°
2026-04-26 11:58 39.54659 3.04420 16678 ft 365 kts 71°
2026-04-26 11:58 39.55517 3.07516 17409 ft 365 kts 71°
2026-04-26 11:58 39.56382 3.10642 18002 ft 369 kts 71°
2026-04-26 11:58 39.57248 3.13781 18601 ft 372 kts 71°
2026-04-26 11:59 39.58122 3.16954 19124 ft 375 kts 71°
2026-04-26 11:59 39.59002 3.20152 19641 ft 379 kts 71°
2026-04-26 11:59 39.59905 3.23380 20168 ft 382 kts 68°
2026-04-26 11:59 39.61271 3.26346 20645 ft 388 kts 50°
2026-04-26 12:00 39.63195 3.28839 21171 ft 392 kts 44°
2026-04-26 12:00 39.65186 3.31270 21697 ft 395 kts 44°
2026-04-26 12:00 39.67200 3.33711 22223 ft 398 kts 44°
2026-04-26 12:00 39.69235 3.36180 22726 ft 401 kts 44°
2026-04-26 12:01 39.71282 3.38672 23216 ft 404 kts 44°
2026-04-26 12:01 39.73313 3.41151 23688 ft 407 kts 44°
2026-04-26 12:01 39.75382 3.43683 24096 ft 410 kts 44°
2026-04-26 12:01 39.77466 3.46238 24496 ft 413 kts 44°
2026-04-26 12:02 39.79558 3.48809 24896 ft 415 kts 44°
2026-04-26 12:02 39.81663 3.51401 25282 ft 417 kts 44°
2026-04-26 12:02 39.83777 3.54002 25672 ft 419 kts 44°
2026-04-26 12:02 39.85901 3.56617 26038 ft 422 kts 44°
2026-04-26 12:03 39.88043 3.59256 26412 ft 424 kts 44°
2026-04-26 12:03 39.90189 3.61901 26778 ft 426 kts 44°
2026-04-26 12:03 39.92349 3.64565 27151 ft 429 kts 44°
2026-04-26 12:03 39.94518 3.67245 27520 ft 431 kts 44°
2026-04-26 12:04 39.96754 3.69858 27876 ft 434 kts 37°
2026-04-26 12:04 39.99361 3.71750 28220 ft 437 kts 23°
2026-04-26 12:04 40.02176 3.73268 28578 ft 439 kts 23°
2026-04-26 12:04 40.05005 3.74772 28929 ft 441 kts 22°
2026-04-26 12:05 40.07859 3.76278 29261 ft 443 kts 22°
2026-04-26 12:05 40.10723 3.77790 29586 ft 445 kts 22°
2026-04-26 12:05 40.13602 3.79315 29909 ft 447 kts 23°
2026-04-26 12:05 40.16484 3.80848 30343 ft 446 kts 22°
2026-04-26 12:06 40.19355 3.82380 30749 ft 445 kts 22°
2026-04-26 12:06 40.22214 3.83908 31143 ft 444 kts 22°
2026-04-26 12:06 40.25071 3.85437 31528 ft 443 kts 22°
2026-04-26 12:06 40.27923 3.86963 31917 ft 442 kts 22°
2026-04-26 12:07 40.30773 3.88490 32303 ft 441 kts 22°
2026-04-26 12:07 40.33614 3.90013 32695 ft 441 kts 22°
2026-04-26 12:07 40.36451 3.91535 33082 ft 440 kts 22°
2026-04-26 12:07 40.39285 3.93061 33467 ft 439 kts 22°
2026-04-26 12:08 40.42110 3.94582 33859 ft 439 kts 22°
2026-04-26 12:08 40.44933 3.96103 34240 ft 438 kts 22°
2026-04-26 12:08 40.47748 3.97622 34571 ft 437 kts 22°
2026-04-26 12:08 40.50567 3.99140 34860 ft 438 kts 22°
2026-04-26 12:09 40.53389 4.00661 35164 ft 438 kts 22°
2026-04-26 12:09 40.56170 4.02157 35444 ft 438 kts 22°
2026-04-26 12:09 40.58983 4.03674 35728 ft 437 kts 22°
2026-04-26 12:09 40.61800 4.05199 36006 ft 437 kts 22°
2026-04-26 12:10 40.64611 4.06723 36270 ft 437 kts 22°
2026-04-26 12:10 40.67423 4.08246 36531 ft 437 kts 22°
2026-04-26 12:10 40.70233 4.09771 36782 ft 437 kts 21°
2026-04-26 12:10 40.73047 4.11299 37027 ft 437 kts 21°
2026-04-26 12:11 40.75856 4.12827 37264 ft 437 kts 21°
2026-04-26 12:11 40.78664 4.14354 37495 ft 437 kts 21°
2026-04-26 12:11 40.81473 4.15881 37723 ft 437 kts 21°
2026-04-26 12:11 40.84282 4.17409 37946 ft 437 kts 21°
2026-04-26 12:12 40.87094 4.18941 38135 ft 437 kts 21°
2026-04-26 12:12 40.92725 4.22019 38174 ft 439 kts 21°
2026-04-26 12:13 40.98395 4.25120 38182 ft 448 kts 21°
2026-04-26 12:13 41.04195 4.28291 38173 ft 452 kts 21°
2026-04-26 12:14 41.09999 4.31482 38169 ft 452 kts 21°
2026-04-26 12:14 41.15804 4.34682 38174 ft 451 kts 21°
2026-04-26 12:15 41.21614 4.37885 38173 ft 452 kts 21°
2026-04-26 12:15 41.27392 4.41070 38177 ft 452 kts 21°
2026-04-26 12:16 41.33204 4.44289 38187 ft 452 kts 21°
2026-04-26 12:16 41.39006 4.47516 38182 ft 451 kts 21°
2026-04-26 12:17 41.44804 4.50734 38179 ft 451 kts 21°
2026-04-26 12:17 41.50604 4.53954 38186 ft 451 kts 21°
2026-04-26 12:18 41.56360 4.57157 38179 ft 451 kts 21°
2026-04-26 12:18 41.62149 4.60394 38178 ft 451 kts 21°
2026-04-26 12:19 41.67934 4.63641 38171 ft 451 kts 21°
2026-04-26 12:19 41.73525 4.67452 38171 ft 453 kts 34°
2026-04-26 12:20 41.78215 4.73109 38162 ft 455 kts 43°
2026-04-26 12:20 41.82724 4.79068 38165 ft 455 kts 43°
2026-04-26 12:21 41.87206 4.84989 38160 ft 455 kts 43°
2026-04-26 12:21 41.91721 4.90973 38160 ft 455 kts 43°
2026-04-26 12:22 41.96227 4.96954 38158 ft 455 kts 43°
2026-04-26 12:22 42.00738 5.02942 38153 ft 456 kts 43°
2026-04-26 12:23 42.05252 5.08958 38154 ft 456 kts 43°
2026-04-26 12:23 42.09753 5.14984 38166 ft 456 kts 43°
2026-04-26 12:24 42.14220 5.20974 38159 ft 456 kts 43°
2026-04-26 12:24 42.18710 5.27011 38158 ft 456 kts 43°
2026-04-26 12:25 42.25446 5.36079 38151 ft 456 kts 43°
2026-04-26 12:25 42.29933 5.42136 38154 ft 456 kts 43°
2026-04-26 12:26 42.34427 5.48205 38156 ft 456 kts 43°
2026-04-26 12:26 42.38156 5.53253 38149 ft 456 kts 43°
2026-04-26 12:27 42.42640 5.59343 38146 ft 456 kts 43°
2026-04-26 12:27 42.47844 5.66429 38153 ft 457 kts 43°
2026-04-26 12:28 42.51594 5.71546 38155 ft 457 kts 43°
2026-04-26 12:28 42.56071 5.77666 38151 ft 457 kts 43°
2026-04-26 12:29 42.60436 5.83861 38146 ft 457 kts 46°
2026-04-26 12:30 42.66759 5.93567 38148 ft 458 kts 47°
2026-04-26 12:30 42.70973 6.00063 38153 ft 458 kts 46°
2026-04-26 12:31 42.77351 6.09737 38161 ft 458 kts 46°
2026-04-26 12:31 42.81616 6.16189 38160 ft 458 kts 46°
2026-04-26 12:32 42.85863 6.22666 38177 ft 458 kts 46°
2026-04-26 12:33 42.92219 6.32392 38162 ft 458 kts 46°
2026-04-26 12:33 42.96423 6.38847 38163 ft 458 kts 46°
2026-04-26 12:34 43.00655 6.45352 38164 ft 458 kts 46°
2026-04-26 12:34 43.04878 6.51864 38176 ft 458 kts 46°
2026-04-26 12:35 43.09098 6.58400 38183 ft 458 kts 46°
2026-04-26 12:35 43.13319 6.64939 38179 ft 457 kts 46°
2026-04-26 12:36 43.17508 6.71434 38178 ft 457 kts 46°
2026-04-26 12:36 43.21714 6.77972 38175 ft 457 kts 46°
2026-04-26 12:37 43.25919 6.84528 38181 ft 457 kts 46°
2026-04-26 12:37 43.30127 6.91100 38180 ft 457 kts 46°
2026-04-26 12:38 43.34325 6.97672 38179 ft 457 kts 47°
2026-04-26 12:38 43.38485 7.04203 38181 ft 457 kts 47°
2026-04-26 12:39 43.42668 7.10792 38190 ft 457 kts 47°
2026-04-26 12:39 43.46847 7.17381 38184 ft 457 kts 47°
2026-04-26 12:40 43.51021 7.23969 38182 ft 457 kts 47°
2026-04-26 12:40 43.55193 7.30581 38183 ft 457 kts 47°
2026-04-26 12:41 43.59360 7.37207 38191 ft 457 kts 47°
2026-04-26 12:41 43.63519 7.43834 38180 ft 457 kts 47°
2026-04-26 12:42 43.67682 7.50472 38189 ft 457 kts 47°
2026-04-26 12:42 43.71814 7.57073 38190 ft 457 kts 47°
2026-04-26 12:43 43.75930 7.63774 38189 ft 458 kts 52°
2026-04-26 12:43 43.79619 7.70983 38196 ft 458 kts 53°
2026-04-26 12:44 43.83827 7.77534 38189 ft 454 kts 37°
2026-04-26 12:44 43.88816 7.82879 38178 ft 453 kts 35°
2026-04-26 12:45 43.93912 7.87966 38175 ft 449 kts 24°
2026-04-26 12:45 43.99708 7.91086 38175 ft 446 kts 17°
2026-04-26 12:46 44.05555 7.94039 38169 ft 446 kts 17°
2026-04-26 12:46 44.11352 7.96954 38168 ft 446 kts 17°
2026-04-26 12:47 44.17196 7.99908 38180 ft 447 kts 17°
2026-04-26 12:47 44.23049 8.02871 38173 ft 447 kts 17°
2026-04-26 12:48 44.28898 8.05836 38168 ft 447 kts 17°
2026-04-26 12:48 44.34745 8.08814 38161 ft 447 kts 17°
2026-04-26 12:49 44.40588 8.11800 38146 ft 447 kts 17°
2026-04-26 12:49 44.46429 8.14781 38142 ft 447 kts 17°
2026-04-26 12:50 44.52277 8.17768 38134 ft 447 kts 17°
2026-04-26 12:50 44.58090 8.20739 38124 ft 448 kts 17°
2026-04-26 12:51 44.63956 8.23764 38122 ft 449 kts 17°
2026-04-26 12:51 44.69816 8.26792 38139 ft 449 kts 17°
2026-04-26 12:52 44.75693 8.29823 38127 ft 450 kts 17°
2026-04-26 12:52 44.81566 8.32863 38120 ft 450 kts 18°
2026-04-26 12:53 44.87453 8.35923 38122 ft 450 kts 18°
2026-04-26 12:53 44.93300 8.38964 38117 ft 451 kts 17°
2026-04-26 12:54 44.99190 8.42023 38117 ft 451 kts 17°
2026-04-26 12:54 45.05081 8.45084 38131 ft 451 kts 17°
2026-04-26 12:55 45.10980 8.48169 38130 ft 451 kts 18°
2026-04-26 12:55 45.16867 8.51266 38120 ft 451 kts 18°
2026-04-26 12:56 45.22752 8.54364 38126 ft 451 kts 18°
2026-04-26 12:56 45.28636 8.57463 38133 ft 451 kts 18°
2026-04-26 12:57 45.34538 8.60575 38126 ft 451 kts 17°
2026-04-26 12:57 45.40392 8.63660 38127 ft 451 kts 18°
2026-04-26 12:58 45.49229 8.68331 38120 ft 452 kts 18°
2026-04-26 12:58 45.55116 8.71463 38125 ft 452 kts 18°
2026-04-26 12:59 45.61008 8.74615 38065 ft 453 kts 18°
2026-04-26 12:59 45.63974 8.76202 37496 ft 455 kts 18°
2026-04-26 12:59 45.66934 8.77786 36968 ft 454 kts 18°
2026-04-26 13:00 45.69888 8.79371 36427 ft 455 kts 18°
2026-04-26 13:00 45.72857 8.80965 35898 ft 456 kts 18°
2026-04-26 13:00 45.75837 8.82566 35390 ft 457 kts 18°
2026-04-26 13:00 45.78822 8.84168 34931 ft 459 kts 18°
2026-04-26 13:01 45.81815 8.85773 34512 ft 460 kts 18°
2026-04-26 13:01 45.84813 8.87384 34158 ft 461 kts 18°
2026-04-26 13:01 45.87823 8.88999 33750 ft 462 kts 18°
2026-04-26 13:01 45.90833 8.90619 33339 ft 463 kts 18°
2026-04-26 13:02 45.93853 8.92250 32933 ft 464 kts 18°
2026-04-26 13:02 45.96841 8.93872 32538 ft 465 kts 18°
2026-04-26 13:02 45.99873 8.95520 32145 ft 466 kts 18°
2026-04-26 13:02 46.02906 8.97165 31761 ft 467 kts 18°
2026-04-26 13:03 46.05954 8.98812 31384 ft 468 kts 18°
2026-04-26 13:03 46.09006 9.00466 31006 ft 468 kts 18°
2026-04-26 13:03 46.12052 9.02124 30634 ft 466 kts 18°
2026-04-26 13:03 46.15127 9.03446 30263 ft 457 kts
2026-04-26 13:04 46.18263 9.03884 29857 ft 449 kts 356°
2026-04-26 13:04 46.21352 9.03574 29397 ft 444 kts 352°
2026-04-26 13:04 46.24417 9.03161 28934 ft 439 kts 352°
2026-04-26 13:04 46.27435 9.02758 28522 ft 431 kts 352°
2026-04-26 13:05 46.30392 9.02358 28123 ft 424 kts 352°
2026-04-26 13:05 46.33317 9.01957 27726 ft 420 kts 352°
2026-04-26 13:05 46.36219 9.01560 27337 ft 417 kts 352°
2026-04-26 13:05 46.39101 9.01167 26957 ft 415 kts 352°
2026-04-26 13:06 46.41967 9.00777 26500 ft 412 kts 352°
2026-04-26 13:06 46.44818 9.00396 26024 ft 410 kts 352°
2026-04-26 13:06 46.47610 9.00029 25566 ft 407 kts 352°
2026-04-26 13:06 46.50428 8.99657 25112 ft 405 kts 352°
2026-04-26 13:07 46.53222 8.99287 24660 ft 402 kts 352°
2026-04-26 13:07 46.56004 8.98918 24212 ft 400 kts 352°
2026-04-26 13:07 46.58771 8.98546 23756 ft 398 kts 352°
2026-04-26 13:07 46.61522 8.98172 23220 ft 396 kts 352°
2026-04-26 13:08 46.64260 8.97799 22700 ft 394 kts 353°
2026-04-26 13:08 46.66985 8.97427 22166 ft 392 kts 353°
2026-04-26 13:08 46.69691 8.97057 21697 ft 389 kts 353°
2026-04-26 13:08 46.72380 8.96694 21251 ft 387 kts 353°
2026-04-26 13:09 46.75051 8.96331 20793 ft 384 kts 353°
2026-04-26 13:09 46.77698 8.95971 20335 ft 380 kts 352°
2026-04-26 13:09 46.80322 8.95615 19912 ft 378 kts 353°
2026-04-26 13:09 46.82896 8.95267 19479 ft 374 kts 352°
2026-04-26 13:10 46.85484 8.94918 19052 ft 371 kts 353°
2026-04-26 13:10 46.88040 8.94567 18637 ft 368 kts 353°
2026-04-26 13:10 46.90586 8.94220 18181 ft 366 kts 353°
2026-04-26 13:10 46.93115 8.93878 17700 ft 364 kts 353°
2026-04-26 13:11 46.95634 8.93535 17233 ft 362 kts 353°
2026-04-26 13:11 46.98137 8.93188 16794 ft 359 kts 353°
2026-04-26 13:11 47.00615 8.92848 16384 ft 357 kts 353°
2026-04-26 13:11 47.03077 8.92508 16048 ft 352 kts 353°
2026-04-26 13:12 47.05488 8.92173 15801 ft 345 kts 353°
2026-04-26 13:12 47.07860 8.91845 15484 ft 340 kts 352°
2026-04-26 13:12 47.10185 8.91522 15070 ft 339 kts 352°
2026-04-26 13:12 47.12531 8.91197 14672 ft 338 kts 353°
2026-04-26 13:13 47.14871 8.90874 14271 ft 337 kts 353°
2026-04-26 13:13 47.17199 8.90554 13850 ft 336 kts 352°
2026-04-26 13:13 47.19521 8.90237 13407 ft 335 kts 353°
2026-04-26 13:13 47.21835 8.89918 12969 ft 333 kts 353°
2026-04-26 13:14 47.24131 8.89597 12580 ft 330 kts 354°
2026-04-26 13:14 47.26412 8.89589 12200 ft 328 kts
2026-04-26 13:14 47.28558 8.90654 11845 ft 326 kts 28°
2026-04-26 13:14 47.30318 8.92710 11545 ft 321 kts 48°
2026-04-26 13:15 47.31617 8.95371 11250 ft 317 kts 54°
2026-04-26 13:15 47.33108 8.97677 11108 ft 306 kts 40°
2026-04-26 13:15 47.34770 8.99571 10847 ft 299 kts 35°
2026-04-26 13:15 47.35900 9.00726 10544 ft 298 kts 34°
2026-04-26 13:16 47.37603 9.02420 10266 ft 289 kts 34°
2026-04-26 13:16 47.39211 9.04051 10140 ft 272 kts 34°
2026-04-26 13:16 47.41171 9.06121 9898 ft 253 kts 36°
2026-04-26 13:16 47.42123 9.07157 9695 ft 250 kts 37°
2026-04-26 13:17 47.44860 9.10212 8808 ft 244 kts 37°
2026-04-26 13:17 47.46200 9.11728 8346 ft 242 kts 38°
2026-04-26 13:18 47.48838 9.14718 7414 ft 237 kts 38°
2026-04-26 13:18 47.50138 9.16194 6970 ft 234 kts 38°
2026-04-26 13:18 47.52686 9.19082 6055 ft 229 kts 38°
2026-04-26 13:19 47.53944 9.20495 5699 ft 225 kts 38°
2026-04-26 13:19 47.55184 9.21889 5302 ft 222 kts 38°
2026-04-26 13:19 47.56270 9.23474 4987 ft 217 kts 54°
2026-04-26 13:19 47.57061 9.25319 4860 ft 209 kts 60°
2026-04-26 13:20 47.57783 9.27162 4624 ft 206 kts 60°
2026-04-26 13:20 47.58500 9.28998 4369 ft 205 kts 60°
2026-04-26 13:20 47.59214 9.30825 4130 ft 205 kts 59°
2026-04-26 13:20 47.59924 9.32641 4014 ft 201 kts 59°
2026-04-26 13:21 47.60613 9.34406 3818 ft 194 kts 59°
2026-04-26 13:21 47.61266 9.36079 3587 ft 183 kts 59°
2026-04-26 13:21 47.61886 9.37667 3348 ft 174 kts 59°
2026-04-26 13:21 47.62479 9.39188 3110 ft 166 kts 59°
2026-04-26 13:22 47.63045 9.40640 2895 ft 161 kts 58°
2026-04-26 13:22 47.63605 9.42076 2676 ft 161 kts 58°
2026-04-26 13:22 47.64167 9.43520 2451 ft 160 kts 59°
2026-04-26 13:22 47.64691 9.44868 2220 ft 143 kts 57°
2026-04-26 13:23 47.65170 9.46100 2020 ft 137 kts 57°
2026-04-26 13:23 47.65648 9.47328 1833 ft 137 kts 58°
2026-04-26 13:23 47.66122 9.48545 1644 ft 134 kts 56°
2026-04-26 13:23 47.66591 9.49755 1419 ft 134 kts 56°
2026-04-26 13:24 47.67035 9.50891 1354 ft 113 kts 59°
2026-04-26 13:24 47.67358 9.51726 1362 ft 74 kts 60°
2026-04-26 13:24 47.67508 9.52113 1365 ft 21 kts 60°
2026-04-26 13:24 47.67504 9.52264 1368 ft 14 kts 120°
2026-04-26 13:25 47.67456 9.52341 1368 ft 0 kts 152°
2026-04-26 13:27 47.67452 9.52344 1368 ft 3 kts 153°
2026-04-26 13:28 47.67412 9.52340 1369 ft 7 kts 214°
2026-04-26 13:28 47.67373 9.52303 1368 ft 7 kts 178°
2026-04-26 13:28 47.67342 9.52320 1368 ft 3 kts 172°
2026-04-26 13:28 47.67335 9.52317 1368 ft 0 kts 191°